Regional Weather Roundup
Issued by NWS

Home | Current Version | Previous Version | Graphics & Text | Print | Product List | Glossary On
Versions: 1 2 3 4 5 6 7 8 9 10 11 12 13 14 15 16 17 18 19 20 21 22 23 24 25 26 27 28 29 30 31 32 33 34 35 36 37 38 39 40 41 42 43 44 45 46 47 48 49 50
000
ASUS45 KTFX 262319
RWRMT
MONTANA HOURLY WEATHER ROUNDUP
NATIONAL WEATHER SERVICE GREAT FALLS MT
419 PM MST FRI DEC 26 2014

NOTE: "FAIR" INDICATES FEW OR NO CLOUDS BELOW 12000 FEET WITH NO
SIGNIFICANT WEATHER AND/OR OBSTRUCTIONS TO VISIBILITY.

* THESE STATIONS ARE NOT UNDER NWS QUALITY CONTROL. THEY DO NOT
   REPORT WEATHER SUCH AS PRECIPITATION OR FOG.

MTZ001>007-043-270000-
WEST OF THE DIVIDE
CITY           SKY/WX    TMP DP  RH WIND       PRES   REMARKS
KALISPELL      CLOUDY    28  19  69 CALM      30.17S
MISSOULA       CLOUDY    28  21  75 W3        30.18R
BUTTE          PTSUNNY   19  12  74 W6        30.05R WCI  11
MULLAN PASS    CLOUDY    19  14  81 VRB3      30.06R
* ESSEX        N/A       25  21  85 N/A        N/A
* HAMILTON APT PTCLDY    28  21  75 S1        30.15R
* LIBBY APT    SUNNY     28  21  75 CALM      30.22R
* LINCOLN      N/A       25  18  75 S3         N/A
* LOOKOUT PASS N/A       22  19  88 N3         N/A
* POLSON       N/A       28  25  89 N/A        N/A
* RONAN APT    PTCLDY    27  23  85 N/A        N/A
* SEELEY LAKE  N/A       28  18  66 NW5G12     N/A   WCI  22
* THOMP F APT  SUNNY     24   5  44 N4G14      N/A
* YAAK HILL    N/A       31  19  61 N/A        N/A
$$

MTZ008-052>055-270000-
SOUTHWEST MONTANA
CITY           SKY/WX    TMP DP  RH WIND       PRES   REMARKS
BOZEMAN        FOG       10  10 100 E3        30.11R
DILLON         LGT SNOW  21  14  74 W3        30.05R
* W YELLOWSTON PTSUNNY   12   4  70 N/A        N/A
* THREE FORKS  PTCLDY    23  23 100 N/A        N/A
* BOULDER HILL N/A       18   8  65 N4         N/A
* MONIDA PASS  N/A       16  10  77 W12        N/A   WCI   3
* RAYNOLDS PAS N/A       15 -30  11 VRB6G11    N/A   WCI   6
* WHITEHALL    N/A       26  19  75 SE3        N/A
* WISE RIVER   N/A       21  12  68 W3G8       N/A
$$

MTZ009>010-012-014-046-048-049-054-270000-
EAST SLOPES AND CENTRAL MONTANA
CITY           SKY/WX    TMP DP  RH WIND       PRES   REMARKS
CUT BANK       SUNNY     16  10  77 S7        30.05S WCI   6
GREAT FALLS    SUNNY     12   9  88 S8        30.10S
HELENA         SUNNY     25  16  69 E5        30.11R WCI  19
MALMSTROM AFB  SUNNY     10  10 100 S9        30.13S WCI  -3
* CONRAD       SUNNY     21  16  81 CALM       N/A
* DEARBORN     N/A       21  17  84 S3         N/A
* EAST GLACIER N/A       22  12  65 W12G19     N/A   WCI  10
* MONARCH      N/A       14   4  64 E2         N/A
* PENDROY      N/A       18  13  81 SW3        N/A
* ROGERS PASS  N/A       19  13  77 SE8G14     N/A   WCI   9
* SWEET GRASS  N/A       21  12  68 SW14       N/A   WCI   8
* WHITE SULPH  N/A       19  12  74 S3         N/A
$$

MTZ011-013-016-021-035-040-045-047-050-051-270000-
NORTH CENTRAL MONTANA
CITY           SKY/WX    TMP DP  RH WIND       PRES   REMARKS
HAVRE          SUNNY     21  16  81 SW9       30.14R WCI  11
LEWISTOWN      PTSUNNY   19  16  88 W5        30.08R WCI  12
* N BAR RANCH  PTSUNNY   19  12  74 NW12G17   30.05R WCI   6
* CHINOOK      SUNNY     25  16  69 W8        30.14R WCI  16
* CHESTER      N/A       24  17  75 SW5G10     N/A   WCI  18
* DENTON       N/A       17  13  84 W2         N/A
* LOMA         N/A       22  17  81 S9         N/A   WCI  12
$$

MTZ017>020-022>027-061-062-270000-
NORTHEAST MONTANA
CITY           SKY/WX    TMP DP  RH WIND       PRES   REMARKS
GLASGOW        CLOUDY    27  19  72 W3        30.10R
GLENDIVE       CLOUDY    25  18  75 S8        30.11R WCI  16
JORDAN         CLOUDY    27  19  72 NW13      30.10R WCI  16
SIDNEY         CLOUDY    21  16  81 NE3       30.15S
WOLF POINT     CLOUDY    19  16  88 E6        30.13R WCI  11
* BEAVER HILL  N/A       22  14  71 S7         N/A   WCI  13
* CIRCLE       N/A       28  23  81 W6         N/A   WCI  21
* LINDSAY DVD  N/A       24  18  78 S9         N/A   WCI  14
* NAVAJO       N/A       16  13  88 S4         N/A
* PLENTYWOOD A SUNNY     14  12  92 S6        30.11S WCI   5
* POPLAR APT   SUNNY     19  16  88 N7        30.13R VSB 3    WCI  10
* SACO         N/A       27  21  78 W6         N/A   WCI  20
$$

MTZ028>042-056>058-270000-
SOUTHCENTRAL AND SOUTHEAST MONTANA
CITY           SKY/WX    TMP DP  RH WIND       PRES   REMARKS
BAKER          PTCLDY    18  12  77 SW7       30.09S WCI   9
BILLINGS       CLOUDY    23  16  74 SW7       30.08R WCI  15
LIVINGSTON     CLOUDY    21  14  74 W8        30.06R WCI  11
MILES CITY     CLOUDY    25  19  78 S5        30.09R WCI  19
* BIG TIMBER A PTCLDY    21  14  74 W16       30.06R WCI   7
* FORSYTH APT  PTCLDY    25  18  75 W10       30.11R WCI  15
* LAUREL APT   PTSUNNY   21  12  68 N/A        N/A
* ROUNDUP APT  PTCLDY    25  14  63 N/A        N/A
* ALZADA       N/A       21  14  74 W1         N/A
* HYSHAM       N/A       22  14  71 W1         N/A
* LAME DEER    N/A       22  17  81 W4         N/A
* ROSCOE HILL  N/A       24   4  42 W1         N/A
$$

REGIONAL REPORTS...DAKOTAS
CITY           SKY/WX    TMP DP  RH WIND       PRES   REMARKS
WILLISTON      CLOUDY    19  12  74 SE5       30.15S WCI  12
DICKINSON      PTCLDY    21  12  68 NE5       30.09R WCI  14
BEACH          CLOUDY    21  14  74 W5        30.10S WCI  14
CROSBY         CLOUDY    12  12 100 S5        30.14F WCI   4
TIOGA          CLOUDY    16  16 100 SW5       30.15S WCI   8
WATFORD CITY   CLOUDY    18  14  84 SE5       30.13S WCI  11
BISMARCK       SUNNY     14   9  80 N6        30.19R WCI   5
GRAND FORKS    SUNNY      9   3  76 NW9       30.23R WCI  -4
FARGO          CLOUDY    21  16  81 N13       30.20R WCI   8
BUFFALO SD     SUNNY     18  10  71 NW6       30.03S WCI  10
RAPID CITY     CLOUDY    18  12  77 N3        30.09S
$$

REGIONAL REPORTS...WYOMING/IDAHO/WASHINGTON
CITY           SKY/WX    TMP DP  RH WIND       PRES   REMARKS
GILLETTE       PTSUNNY   18  12  77 CALM      30.02R
SHERIDAN       SUNNY     10   3  73 CALM      30.05R
CODY           CLOUDY    21  16  81 S3        30.01R
YELLOWSTONE LA PTCLDY    12   3  67 NW3       29.94R
SALMON         CLOUDY    27  18  69 CALM      30.14R
MULLAN PASS    CLOUDY    19  14  81 VRB3      30.06S
SAND POINT     PTSUNNY   32  23  69 CALM      30.24S
SPOKANE        PTSUNNY   28  28 100 E5        30.24R WCI  22
$$

REGIONAL REPORTS...ALBERTA
CITY           SKY/WX    TMP DP  RH WIND       PRES   REMARKS
CALGARY        PTCLDY    25   9  50 SW6       29.98F WCI  18
LETHBRIDGE     SUNNY     19  12  74 S6        30.05F WCI  11
MEDICINE HAT   N/A       23  19  85 SW10      30.09F WCI  13
EDMONTON       PTSUNNY   12   7  80 SW3       30.00S
WATERTON GATE  N/A       25  14  63 SW17G28    N/A   WCI  12
CARDSTON       N/A       18  12  77 SW1        N/A
MILK RIVER     N/A       21  12  68 SW5        N/A   WCI  14
$$

REGIONAL REPORTS...SASKATCHEWAN
CITY           SKY/WX    TMP DP  RH WIND       PRES   REMARKS
SWIFT CURRENT  CLOUDY    16  14  92 W10       30.05S WCI   4
REGINA         PTSUNNY    5   1  83 SE6       30.12R WCI  -6
VAL MARIE      N/A       21  18  88 NW14       N/A   WCI   8
ASSINIBOIA     N/A       14  10  84 W6         N/A   WCI   5

$$



USA.gov is the U.S. government's official web portal to all federal, state and local government web resources and services.